Weather History for Slayton, MN

Change the Weather History Date:

Wednesday, November 14, 2012

  Actual Average (KOTG) Record (KOTG)
Temperature  
Mean Temperature 38 °F -  
Max Temperature 50 °F 40 °F 64 °F (2001)
Min Temperature 26 °F 25 °F -4 °F (1986)
Degree Days  
Heating Degree Days 27    
Moisture  
Dew Point 28 °F    
Average Humidity 65    
Maximum Humidity 90    
Minimum Humidity 39    
Precipitation  
Precipitation 0.00 in - - ()
Sea Level Pressure  
Sea Level Pressure 30.20 in    
Wind  
Wind Speed 5 mph (SSW)    
Max Wind Speed 13 mph    
Max Gust Speed -    
Visibility 10 miles    
Events      
Averages and records for this station are not official NWS values.
T = Trace of Precipitation, MM = Missing Value Source: NWS Daily Summary

Daily Weather History Graph

Daily Weather History Graph

Search for Another Location

Airport:

Trip Planner

Search our weather history database for the weather conditions in past years. The results will help you decide how hot, cold, wet, or windy it might be!

Date:

Astronomy

Nov. 14, 2012 Rise Set
Actual Time 7:17 AM CST 4:57 PM CST
Civil Twilight 6:46 AM CST 5:28 PM CST
Nautical Twilight 6:11 AM CST 6:03 PM CST
Astronomical Twilight 5:37 AM CST 6:37 PM CST
Moon 8:09 AM CST (11/14) 5:44 PM CST (11/14)
Length of Visible Light 10h 42m
Length of Day
9h 39m
New Moon, 1% of the Moon is Illuminated
Nov 14
New Moon
Nov 20
First Quarter
Nov 28
Full
Dec 6
Last Quarter
Dec 13
New

Hourly Weather History & Observations

Time (CST) Temp. Windchill Dew Point Humidity Pressure Visibility Wind Dir Wind Speed Gust Speed Precip Events Conditions
12:15 AM 34.0 °F - 27.1 °F 76% 30.23 in 10.0 mi Calm Calm - N/A   Overcast
12:35 AM 33.6 °F - 27.3 °F 78% 30.23 in 10.0 mi Calm Calm - N/A   Overcast
12:55 AM 34.3 °F - 27.0 °F 74% 30.22 in 10.0 mi Calm Calm - N/A   Overcast
1:15 AM 34.7 °F - 27.0 °F 73% 30.22 in 10.0 mi Calm Calm - N/A   Overcast
1:34 AM 33.6 °F - 27.1 °F 77% 30.23 in 10.0 mi Calm Calm - N/A   Overcast
1:55 AM 31.8 °F 27.3 °F 27.9 °F 85% 30.24 in 10.0 mi SSW 4.6 mph - N/A   Mostly Cloudy
2:15 AM 31.3 °F 26.6 °F 26.8 °F 83% 30.24 in 10.0 mi SSW 4.6 mph - N/A   Overcast
2:34 AM 29.7 °F 24.7 °F 27.0 °F 90% 30.24 in 10.0 mi SW 4.6 mph - N/A   Overcast
2:55 AM 31.8 °F 28.5 °F 25.2 °F 76% 30.24 in 10.0 mi West 3.5 mph - N/A   Mostly Cloudy
3:15 AM 32.0 °F 27.5 °F 25.2 °F 76% 30.24 in 10.0 mi West 4.6 mph - N/A   Mostly Cloudy
3:34 AM 31.3 °F 24.7 °F 24.8 °F 77% 30.24 in 10.0 mi West 6.9 mph - N/A   Scattered Clouds
3:55 AM 32.4 °F 25.3 °F 23.9 °F 71% 30.24 in 10.0 mi West 8.1 mph - N/A   Clear
4:15 AM 31.3 °F 24.7 °F 23.9 °F 74% 30.24 in 10.0 mi West 6.9 mph - N/A   Clear
4:34 AM 31.6 °F 25.1 °F 23.5 °F 72% 30.24 in 10.0 mi WSW 6.9 mph - N/A   Clear
4:55 AM 31.6 °F 26.0 °F 22.8 °F 70% 30.24 in 10.0 mi WSW 5.8 mph - N/A   Clear
5:15 AM 31.6 °F 27.0 °F 22.6 °F 69% 30.24 in 10.0 mi SW 4.6 mph - N/A   Clear
5:35 AM 28.2 °F 20.2 °F 22.8 °F 80% 30.24 in 10.0 mi SW 8.1 mph - N/A   Clear
5:55 AM 30.0 °F 23.2 °F 22.3 °F 73% 30.24 in 10.0 mi South 6.9 mph - N/A   Clear
6:15 AM 29.3 °F 23.2 °F 21.9 °F 74% 30.24 in 10.0 mi South 5.8 mph - N/A   Clear
6:35 AM 30.6 °F 24.7 °F 22.6 °F 72% 30.24 in 10.0 mi SSW 5.8 mph - N/A   Clear
6:55 AM 26.6 °F 21.2 °F 22.8 °F 86% 30.24 in 10.0 mi SSW 4.6 mph - N/A   Clear
7:15 AM 28.2 °F 24.4 °F 23.2 °F 81% 30.24 in 10.0 mi SSW 3.5 mph - N/A   Clear
7:35 AM 29.5 °F - 23.0 °F 77% 30.25 in 10.0 mi Calm Calm - N/A   Clear
7:55 AM 28.4 °F 23.3 °F 23.7 °F 83% 30.25 in 10.0 mi SSE 4.6 mph - N/A   Clear
8:15 AM 30.6 °F - 25.2 °F 80% 30.24 in 10.0 mi Calm Calm - N/A   Clear
8:35 AM 32.2 °F 26.7 °F 27.7 °F 83% 30.25 in 10.0 mi South 5.8 mph - N/A   Clear
8:55 AM 36.7 °F 32.0 °F 28.4 °F 72% 30.25 in 10.0 mi SSW 5.8 mph - N/A   Clear
9:15 AM 39.4 °F 37.2 °F 27.3 °F 62% 30.25 in 10.0 mi South 3.5 mph - N/A   Clear
9:35 AM 41.0 °F 39.0 °F 28.8 °F 62% 30.25 in 10.0 mi South 3.5 mph - N/A   Clear
9:55 AM 42.8 °F 40.1 °F 29.1 °F 58% 30.25 in 10.0 mi SSW 4.6 mph - N/A   Clear
10:15 AM 45.7 °F 41.0 °F 27.7 °F 49% 30.25 in 10.0 mi SW 9.2 mph - N/A   Clear
10:35 AM 45.7 °F 40.6 °F 26.2 °F 47% 30.24 in 10.0 mi SSW 10.4 mph - N/A   Clear
10:55 AM 46.8 °F - 27.0 °F 46% 30.25 in 10.0 mi SSW 9.2 mph - N/A   Clear
11:15 AM 47.1 °F - 27.3 °F 46% 30.24 in 10.0 mi SSW 11.5 mph - N/A   Clear
11:35 AM 48.2 °F - 26.6 °F 43% 30.24 in 10.0 mi SW 10.4 mph - N/A   Clear
11:55 AM 48.9 °F - 26.8 °F 42% 30.22 in 10.0 mi SW 11.5 mph - N/A   Clear
12:15 PM 49.5 °F - 27.0 °F 42% 30.21 in 10.0 mi SSW 9.2 mph - N/A   Clear
12:35 PM 50.0 °F - 26.6 °F 40% 30.21 in 10.0 mi SSW 11.5 mph - N/A   Clear
12:55 PM 50.4 °F - 26.4 °F 39% 30.20 in 10.0 mi SSW 10.4 mph - N/A   Clear
1:15 PM 49.3 °F - 27.1 °F 42% 30.20 in 10.0 mi SSW 11.5 mph - N/A   Clear
1:35 PM 50.4 °F - 26.6 °F 40% 30.19 in 10.0 mi SSW 10.4 mph - N/A   Clear
1:55 PM 50.9 °F - 26.4 °F 39% 30.19 in 10.0 mi South 10.4 mph - N/A   Clear
2:15 PM 50.9 °F - 26.4 °F 39% 30.18 in 10.0 mi SSW 11.5 mph - N/A   Clear
2:35 PM 50.0 °F - 28.0 °F 43% 30.18 in 10.0 mi SSW 10.4 mph - N/A   Clear
2:54 PM 49.6 °F - 27.5 °F 42% 30.17 in 10.0 mi SSW 11.5 mph - N/A   Clear
3:15 PM 49.8 °F - 28.0 °F 43% 30.17 in 10.0 mi South 10.4 mph - N/A   Clear
3:35 PM 49.5 °F - 27.9 °F 43% 30.17 in 10.0 mi South 9.2 mph - N/A   Clear
3:54 PM 48.7 °F - 28.4 °F 45% 30.16 in 10.0 mi South 9.2 mph - N/A   Clear
4:15 PM 46.4 °F 42.4 °F 29.3 °F 51% 30.16 in 10.0 mi South 8.1 mph - N/A   Clear
4:35 PM 44.1 °F 40.8 °F 29.8 °F 57% 30.15 in 10.0 mi South 5.8 mph - N/A   Clear
4:55 PM 41.2 °F 37.3 °F 30.7 °F 66% 30.15 in 10.0 mi SSE 5.8 mph - N/A   Mostly Cloudy
5:15 PM 40.8 °F 36.2 °F 30.2 °F 66% 30.14 in 10.0 mi South 6.9 mph - N/A   Overcast
5:35 PM 38.1 °F 33.7 °F 30.7 °F 75% 30.15 in 10.0 mi SSE 5.8 mph - N/A   Overcast
5:55 PM 39.2 °F 34.2 °F 31.1 °F 73% 30.15 in 10.0 mi SSE 6.9 mph - N/A   Overcast
6:15 PM 38.7 °F 34.3 °F 31.1 °F 74% 30.15 in 10.0 mi SSE 5.8 mph - N/A   Overcast
6:35 PM 38.1 °F 33.7 °F 31.6 °F 77% 30.15 in 10.0 mi SE 5.8 mph - N/A   Overcast
6:55 PM 39.2 °F 35.9 °F 31.1 °F 73% 30.15 in 10.0 mi South 4.6 mph - N/A   Overcast
7:15 PM 38.7 °F 34.3 °F 31.1 °F 74% 30.15 in 10.0 mi SSE 5.8 mph - N/A   Overcast
7:35 PM 37.6 °F 32.3 °F 32.0 °F 80% 30.15 in 10.0 mi SSE 6.9 mph - N/A   Overcast
7:55 PM 37.4 °F 32.8 °F 32.0 °F 81% 30.14 in 10.0 mi SSE 5.8 mph - N/A   Overcast
8:35 PM 39.6 °F 33.5 °F 32.0 °F 74% 30.15 in 10.0 mi SSW 9.2 mph - N/A   Overcast
8:55 PM 41.0 °F 35.2 °F 31.1 °F 68% 30.14 in 10.0 mi South 9.2 mph - N/A   Overcast
9:14 PM 40.6 °F 35.4 °F 30.9 °F 68% 30.14 in 10.0 mi South 8.1 mph - N/A   Overcast
9:35 PM 40.1 °F 34.1 °F 31.1 °F 70% 30.13 in 10.0 mi South 9.2 mph - N/A   Mostly Cloudy
9:55 PM 40.1 °F 34.7 °F 31.1 °F 70% 30.13 in 10.0 mi South 8.1 mph - N/A   Mostly Cloudy
10:14 PM 39.7 °F 33.2 °F 30.9 °F 71% 30.12 in 10.0 mi South 10.4 mph - N/A   Overcast
10:35 PM 39.2 °F 33.0 °F 30.6 °F 71% 30.12 in 10.0 mi South 9.2 mph - N/A   Mostly Cloudy
10:55 PM 40.1 °F 33.6 °F 30.6 °F 69% 30.11 in 10.0 mi South 10.4 mph - N/A   Overcast
11:15 PM 41.0 °F 33.9 °F 30.6 °F 66% 30.11 in 10.0 mi South 12.7 mph - N/A   Overcast
11:35 PM 40.6 °F 33.8 °F 30.2 °F 66% 30.11 in 10.0 mi South 11.5 mph - N/A   Mostly Cloudy
11:55 PM 37.9 °F 32.1 °F 30.0 °F 73% 30.11 in 10.0 mi South 8.1 mph - N/A   Clear